Retour au catalogue

COSMOS 2251 DEB

ActifLEO
NORAD 34564·DEBRIS·🇷🇺 Russia

Lancé Jun 16, 1993 depuis Plesetsk Cosmodrome

Loading…

Prochains Passages (prochaines 24 heures)

TLE

FraisSource: Space-Track

Époque: Sep 14, 2026, 08:23 UTC

1 34564U 93036VA  26257.34938701  .00000404  00000-0  13335-3 0  9996
2 34564  74.0304  87.9048 0018414 129.7922 286.9633 14.41069968919765

Suivez COSMOS 2251 DEB en temps réel avec AllMySat

Download on the App Store